Regional Weather Roundup
Issued by NWS

Home | Current Version | Previous Version | Graphics & Text | Print | Product List | Glossary On
Versions: 1 2 3 4 5 6 7 8 9 10 11 12 13 14 15 16 17 18 19 20 21 22 23 24 25 26 27 28 29 30 31 32 33 34 35 36 37 38 39 40 41 42 43 44 45 46 47 48 49 50
000
ASUS45 KSLC 301710
RWRUT

UTAH REGIONAL WEATHER ROUNDUP
NATIONAL WEATHER SERVICE SALT LAKE CITY UT
1100 AM MDT TUE JUN 30 2015

UTZ001>011-023>025-301800-

NORTHERN UTAH

CITY           SKY/WX    TMP DP  RH WIND       PRES   REMARKS
BRIGHAM CITY   SUNNY     88  45  22 CALM      30.09S
HILL AFB       SUNNY     87  53  31 E6        30.12S
LOGAN          SUNNY     84  55  36 N9        30.10F
OGDEN          SUNNY     89  51  27 S6        30.09S
PROVO AIRPORT  PTSUNNY   88  52  29 CALM      30.11F
SALT LAKE CITY MOSUNNY   92  51  24 SW10      30.06F
VERNAL         MOSUNNY   83  45  26 S3        30.16F
WENDOVER       SUNNY     93  48  21 SE9       30.09R HX  90
HEBER CITY     MOSUNNY   81  46  30 NW3       30.20F
WEST JORDAN    SUNNY     90  48  24 SE10      30.11S

$$

UTZ012>022-026-027-301800-

SOUTHERN/CENTRAL UTAH

CITY           SKY/WX    TMP DP  RH WIND       PRES   REMARKS
BLANDING       MOSUNNY   82  47  30 S5        30.31S
BRYCE CANYON   MOSUNNY   84  45  25 N6        30.37F
CEDAR CITY     SUNNY     88  44  21 CALM      30.19F
DELTA          MOSUNNY   88  44  21 SW5       30.13S
HANKSVILLE     MOSUNNY   91  39  16 CALM      30.09S
MILFORD        SUNNY     88  47  24 S9        30.14F
MOAB/CYNLANDS  SUNNY     91  45  20 SE8       30.07S
PRICE          MOSUNNY   89  42  19 S6        30.18F
ST GEORGE      MOSUNNY   95  50  21 SE3       29.99F HX  92
KANAB          SUNNY     88  52  29 SW5       30.19F

$$

REGIONAL REPORTS     COLORADO/ARIZONA

CITY           SKY/WX    TMP DP  RH WIND       PRES   REMARKS
CRAIG, CO      MOSUNNY   82  51  34 VRB3      30.24F
GRAND JUNCTION MOSUNNY   85  46  25 SE8       30.12F
RIFLE          SUNNY     84  46  26 VRB3      30.18F
MONTROSE       MOSUNNY   86  49  27 SE6       30.21F
CORTEZ         SUNNY     85  48  27 NW3       30.22F
PAGE, AZ       SUNNY     92  48  22 VRB6      30.07F
GRAND CANYON   SUNNY     84  51  31 SW8       30.29F
KINGMAN        MOSUNNY   94  52  24 SW12      30.06R HX  91
FLAGSTAFF      PTSUNNY   77  50  38 SW5       30.34S

$$

REGIONAL REPORTS    NEVADA/IDAHO/WYOMING

CITY           SKY/WX    TMP DP  RH WIND       PRES   REMARKS
LAS VEGAS, NV  PTSUNNY  101  50  18 SW6       29.88F HX  98
ELY            MOSUNNY   86  42  21 MISG      30.26F
ELKO           SUNNY     86  48  26 W5        30.16F
POCATELLO, ID  SUNNY     79  57  46 CALM      30.14S
BURLEY         SUNNY     82  57  42 CALM      30.10S
EVANSTON, WY   MOSUNNY   79  46  31 SW6       30.31F
ROCK SPRINGS   SUNNY     80  43  26 SW10      30.26F
KEMMERER       SUNNY     81  43  26 SW7       30.33S

$$


USA.gov is the U.S. government's official web portal to all federal, state and local government web resources and services.